TimePDT,TemperatureF,Dew PointF,Humidity,Sea Level PressureIn,VisibilityMPH,Wind Direction,Wind SpeedMPH,Gust SpeedMPH,PrecipitationIn,Events,Conditions,WindDirDegrees,DateUTC
12:53 AM,61.0,51.1,70,29.97,10.0,Calm,Calm,-,N/A,,Clear,0,2013-08-12 07:53:00
1:53 AM,57.9,50.0,75,29.99,10.0,Calm,Calm,-,N/A,,Clear,0,2013-08-12 08:53:00
2:53 AM,55.9,48.9,77,29.98,10.0,Calm,Calm,-,N/A,,Clear,0,2013-08-12 09:53:00
3:53 AM,54.0,48.0,80,29.97,10.0,Calm,Calm,-,N/A,,Clear,0,2013-08-12 10:53:00
4:53 AM,57.0,51.1,81,30.00,10.0,Calm,Calm,-,0.00,Rain,Light Rain,0,2013-08-12 11:53:00
5:53 AM,60.1,53.1,78,29.98,9.0,Calm,Calm,-,0.00,,Clear,0,2013-08-12 12:53:00
6:53 AM,59.0,52.0,78,30.00,8.0,Calm,Calm,-,N/A,,Clear,0,2013-08-12 13:53:00
7:53 AM,66.0,51.1,59,30.00,10.0,Calm,Calm,-,N/A,,Clear,0,2013-08-12 14:53:00
8:53 AM,69.1,50.0,51,30.00,10.0,Variable,4.6,-,N/A,,Clear,0,2013-08-12 15:53:00
9:53 AM,73.9,48.9,41,30.00,10.0,Variable,4.6,-,N/A,,Clear,0,2013-08-12 16:53:00
10:53 AM,77.0,50.0,39,30.00,10.0,Calm,Calm,-,N/A,,Clear,0,2013-08-12 17:53:00
11:53 AM,80.1,50.0,35,30.00,10.0,NW,5.8,-,N/A,,Clear,320,2013-08-12 18:53:00
12:53 PM,82.0,50.0,33,29.99,10.0,WNW,5.8,-,N/A,,Clear,290,2013-08-12 19:53:00
1:53 PM,84.0,48.0,28,29.98,10.0,Calm,Calm,-,N/A,,Clear,0,2013-08-12 20:53:00
2:53 PM,86.0,46.9,26,29.96,10.0,Variable,4.6,-,N/A,,Clear,0,2013-08-12 21:53:00
3:53 PM,89.1,46.0,22,29.94,10.0,NE,4.6,-,N/A,,Clear,50,2013-08-12 22:53:00
4:53 PM,87.1,45.0,23,29.93,10.0,West,4.6,-,N/A,,Clear,280,2013-08-12 23:53:00
5:53 PM,84.9,46.9,27,29.93,10.0,West,4.6,-,N/A,,Clear,280,2013-08-13 00:53:00
6:53 PM,82.0,46.9,29,29.93,10.0,WNW,3.5,-,N/A,,Clear,300,2013-08-13 01:53:00
7:53 PM,80.1,46.9,31,29.94,9.0,West,6.9,-,N/A,,Clear,260,2013-08-13 02:53:00
8:53 PM,75.9,46.9,36,29.94,10.0,West,3.5,-,N/A,,Clear,260,2013-08-13 03:53:00
9:53 PM,70.0,46.9,44,29.97,10.0,Calm,Calm,-,N/A,,Clear,0,2013-08-13 04:53:00
10:53 PM,63.0,46.9,56,30.00,10.0,Calm,Calm,-,N/A,,Clear,0,2013-08-13 05:53:00
11:53 PM,61.0,46.9,60,30.01,10.0,Calm,Calm,-,N/A,,Clear,0,2013-08-13 06:53:00